SCP
-0 -0 -0 -0 0 -0 -0 -0 -0 -0 -0 -0 -0 -0 -0 -0 -0 -0 -0 0 -0 0 0 -0 0 -0 0 0 0 0 -0 -0 -0 0 0 -0 -0 -0 -0 0 -0 0 0 -0 -0
-0 -0 -0 -0 -0 -0 -0 -0 -0 -0 -0 -0 -0 -0 -0 -0 -0 -0 -0 -0 -0 0 0 -0 0 0 0 0 0 0 0 -0 -0 0 0 -0 -0 -0 0 -0 -0 -0 -0 -0 -0
-0 -0 -0 -0 -0 -0 -0 -0 -0 -0 -0 -0 -0 -0 -0 -0 -0 0 -0 -0 0 0 -0 -0 -0 0 0 0 0 0 -0 0 0 -0 -0 0 -0 -0 -0 0 -0 -0 -0 -0 -0
-0 -0 -0 -0 -0 -0 -0 -0 -0 -0 -0 -0 -0 -0 -0 -0 0 -0 -0 -0 0 0 -0 0 0 0 0 0 0 0 0 0 0 0 0 0 0 0 0 0 -0 -0 -0 -0 -0
-0 -0 -0 -0 -0 -0 -0 -0 -0 -0 -0 -0 -0 -0 -0 -0 -0 -0 -0 0 0 -0 -0 0 0 0 0 -0 0 -0 0 0 -0 0 0 0 -0 0 0 0 -0 -0 -0 -0 -0
-0 -0 -0 -0 -0 -0 -0 -0 -0 -0 -0 -0 -0 -0 -0 -0 -0 -0 -0 -0 -0 -0 0 0 0 0 0 0 0 0 0 0 0 0 0 0 -0 0 -0 -0 -0 -0 -0 -0 0
-0 -0 -0 -0 -0 -0 -0 -0 -0 -0 -0 -0 -0 -0 -0 -0 0 -0 -0 -0 -0 -0 0 0 0 0 0 0 0 0 0 0 -0 0 -0 -0 -0 0 -0 0 0 0 0 0 0
-0 -0 -0 -0 -0 -0 -0 -0 0 -0 -0 -0 -0 -0 -0 0 0 0 -0 0 0 0 0 0 0 0 0 0 0 0 -0 -0 -0 0 0 0 0 0 0 0 0 0 0 0 0
-0 -0 -0 -0 -0 -0 -0 -0 -0 -0 -0 -0 -0 -0 -0 0 -0 -0 -0 0 0 0 0 0 0 0 0 0 -0 0 0 -0 -0 0 0 0 0 0 0 0 0 0 0 0 0
-0 -0 -0 -0 -0 -0 -0 0 -0 -0 0 -0 -0 -0 -0 0 -0 0 -0 0 0 -0 0 0 0 0 0 0 0 -0 -0 -0 0 0 0 0 0 0 0 0 0 0 0 0 0
-0 -0 -0 -0 -0 -0 0 0 0 -0 -0 -0 -0 -0 0 0 0 -0 -0 -0 0 -0 -0 -0 -0 -0 0 -0 -0 -0 0 0 0 0 0 0 -0 0 0 0 0 0 0 0 0
-0 -0 -0 -0 -0 -0 0 0 0 0 -0 -0 -0 -0 0 0 0 -0 -0 0 -0 0 -0 0 -0 0 -0 0 0 0 0 0 0 0 0 0 0 -0 0 0 0 0 0 0 0
-0 -0 -0 -0 -0 0 -0 0 -0 -0 0 -0 -0 -0 -0 0 0 -0 -0 0 0 0 0 0 -0 -0 0 0 0 0 0 -0 0 0 0 0 -0 -0 0 0 0 0 0 0 0
-0 -0 -0 -0 0 0 0 0 0 0 -0 0 0 0 0 0 0 0 -0 0 0 0 0 0 -0 0 0 0 -0 -0 -0 0 0 0 0 -0 0 -0 0 0 0 0 0 0 0
-0 -0 -0 0 0 0 -0 0 0 -0 0 0 -0 0 0 -0 0 0 0 0 0 -0 0 -0 -0 0 0 0 -0 0 0 0 0 0 0 0 0 0 0 0 0 0 0 0 0
-0 -0 -0 0 0 -0 -0 -0 0 0 0 0 0 0 0 -0 -0 0 0 -0 -0 0 0 -0 0 0 -0 0 0 0 0 0 0 0 0 -0 -0 0 0 0 0 0 0 0 0
-0 -0 -0 0 0 -0 -0 0 0 -0 0 0 0 0 0 -0 -0 0 0 0 -0 0 -0 -0 0 -0 0 0 0 0 0 0 0 0 0 0 -0 -0 0 0 0 0 0 1 0
-0 -0 0 0 0 0 0 0 0 0 0 0 0 0 -0 0 0 0 0 -0 -0 0 0 -0 0 0 0 0 0 -0 0 0 0 -0 -0 0 0 0 0 0 0 0 0 0 1
-0 0 0 0 0 0 0 0 0 -0 0 0 0 0 -0 -0 -0 0 0 0 -0 0 0 0 -0 0 0 0 -0 0 0 0 0 0 0 -0 0 0 0 0 0 0 0 0 1
0 0 0 -0 0 0 0 -0 0 -0 0 0 0 0 -0 -0 0 0 0 0 -0 -0 0 -0 0 0 0 0 0 0 0 0 0 0 0 0 0 0 0 0 0 0 0 0 0
0 0 0 0 0 0 0 0 0 0 -0 0 0 0 0 0 0 0 0 0 0 -0 0 0 0 0 0 0 0 0 0 0 0 0 0 0 0 0 0 0 0 0 0 0 0
0 0 0 0 0 0 0 -0 -0 0 0 0 0 0 0 0 0 0 0 0 0 0 0 0 0 0 -0 0 0 0 -0 0 0 0 0 0 0 0 0 0 0 0 0 0 0
0 0 0 0 0 0 0 0 -0 -0 0 0 0 0 0 0 0 0 0 0 0 0 0 0 0 0 0 -0 0 0 0 0 0 0 0 0 0 0 0 0 0 0 0 0 0
0 0 0 0 0 0 0 0 0 0 0 0 0 0 0 0 0 0 0 0 0 0 0 0 0 0 0 0 -0 0 0 0 0 0 0 0 0 0 0 0 0 0 0 0 0
0 0 0 0 0 0 0 0 0 0 0 0 0 0 0 0 0 0 0 0 0 0 0 0 0 0 0 0 -0 -0 0 0 0 0 0 0 0 0 0 0 0 0 0 0 0
0 0 0 0 0 0 0 0 0 0 0 0 0 0 0 0 0 0 0 0 0 0 0 0 0 0 0 0 -0 -0 -0 -0 0 0 0 0 0 0 0 0 0 0 0 0 0
0 0 0 0 0 0 0 0 0 0 0 0 0 0 0 0 0 0 0 0 0 0 1 1 0 0 0 0 0 0 0 -0 0 0 0 0 0 0 0 0 0 0 0 0 0
Wind_Speed_500mb
50 45 37 31 28 26 25 22 20 17 13 8 6 6 10 12 11 10 10 17 21 18 9 2 14 15 15 25 28 23 24 28 24 22 8 65 38 31 40 14 45 28 51 55 49
51 50 41 32 29 27 25 22 18 15 10 6 1 4 8 10 13 22 25 20 23 15 10 9 13 14 26 28 26 28 23 33 27 39 14 58 71 51 43 35 49 58 52 49 44
51 53 42 34 33 31 27 23 20 16 11 5 3 5 10 8 10 9 30 20 17 14 2 16 18 18 30 29 28 37 26 8 9 48 61 14 68 78 71 10 31 52 53 47 42
48 51 41 36 37 33 28 24 19 13 8 6 4 4 5 5 5 5 16 19 14 18 7 13 14 21 34 17 15 26 14 20 12 26 29 40 38 58 87 38 43 47 47 44 39
45 47 41 36 40 35 26 23 15 10 9 8 4 2 4 11 7 6 13 14 16 11 14 17 23 28 30 23 8 28 9 7 11 23 67 31 62 58 64 54 49 46 40 38 35
42 43 42 33 38 34 28 21 12 12 11 10 7 7 10 21 3 5 10 11 13 12 16 16 20 23 32 18 20 8 6 5 13 16 60 74 81 32 38 45 46 43 37 31 27
39 39 39 31 32 34 27 20 10 10 12 13 9 11 17 14 4 7 15 15 13 17 12 15 16 14 12 12 16 8 17 10 15 8 21 20 30 34 33 38 37 35 32 30 27
38 36 36 34 26 28 27 17 6 7 11 11 9 16 17 6 6 10 14 15 16 14 13 6 11 25 25 23 11 21 19 22 25 18 4 8 17 35 34 34 34 32 29 27 24
38 36 34 33 25 24 23 18 9 10 10 11 12 13 25 6 13 15 16 18 16 15 16 13 15 24 19 19 17 22 24 28 32 32 12 18 13 33 32 29 32 28 27 27 24
39 37 34 31 26 25 23 18 17 14 13 19 22 18 22 8 13 15 18 13 18 17 20 18 19 20 22 21 24 31 32 25 22 32 28 18 12 28 31 31 30 26 28 27 26
41 38 34 31 27 22 22 28 18 5 11 35 27 24 6 10 10 18 19 18 21 20 23 32 23 27 32 31 38 38 23 25 21 22 11 21 21 34 35 29 32 30 31 29 28
42 40 37 30 23 16 24 21 16 23 34 36 45 41 20 9 16 20 24 24 25 25 29 25 26 32 31 31 30 33 24 21 6 17 1 15 29 36 37 29 32 38 36 34 33
42 42 39 28 13 18 20 16 23 26 22 40 36 37 33 26 25 25 31 31 26 26 29 29 36 35 33 21 16 19 24 24 32 6 1 23 33 25 27 28 35 35 38 42 41
42 42 38 32 13 21 18 22 25 23 11 21 17 21 30 24 29 27 32 33 23 28 30 20 38 10 9 22 24 25 30 33 10 7 19 34 23 30 39 32 31 40 39 41 38
40 41 36 30 36 22 24 30 29 16 11 16 21 14 25 28 10 25 29 35 28 25 14 22 24 7 25 27 28 29 30 30 10 20 25 28 18 28 36 34 33 37 35 37 38
40 36 40 24 32 24 33 33 23 13 14 13 11 17 24 33 23 20 26 33 26 30 16 35 7 12 27 20 5 17 6 9 13 20 23 35 31 25 17 32 28 43 46 42 41
44 37 34 35 31 23 30 26 12 14 8 12 11 23 27 29 29 21 26 26 24 17 25 27 16 22 2 7 11 9 14 14 20 21 26 34 35 27 26 21 18 10 48 49 44
48 41 32 33 24 27 23 19 19 25 16 9 5 14 24 27 23 23 24 29 32 33 28 23 26 33 20 27 18 31 23 20 24 22 21 6 13 15 28 29 20 20 16 31 48
44 37 35 28 25 19 20 19 23 30 17 8 16 18 23 27 27 29 29 30 30 31 24 23 23 32 32 22 24 20 19 21 20 24 26 26 12 22 23 22 15 10 8 15 40
39 33 35 23 24 20 19 33 40 39 21 13 22 24 25 28 27 29 29 29 32 27 21 23 22 17 15 6 15 17 23 16 10 22 30 26 33 15 20 17 18 7 7 12 19
23 15 11 23 20 27 24 34 37 47 39 15 28 30 35 27 21 30 32 24 26 32 18 18 11 26 21 18 23 22 22 23 23 18 19 20 6 14 16 9 7 11 10 17 21
11 11 24 21 24 29 29 41 50 48 16 17 23 28 32 32 28 32 27 35 23 38 24 25 9 23 35 15 27 30 28 17 18 27 22 21 23 16 7 2 16 14 15 26 33
14 36 25 21 18 25 37 43 50 42 28 29 25 32 26 29 29 29 28 17 14 12 11 13 13 21 31 31 15 22 31 24 21 16 24 23 22 28 8 4 7 14 21 25 38
13 9 30 39 38 36 36 35 39 41 32 29 30 30 28 28 28 31 33 26 12 10 13 13 12 22 26 30 26 24 29 34 29 22 26 32 37 29 15 19 20 16 15 26 26
15 15 24 12 31 34 39 35 35 34 38 39 31 37 31 30 33 32 31 38 18 13 5 4 21 32 38 40 46 48 39 30 34 34 32 30 36 31 29 13 18 23 27 28 17
15 18 25 36 38 30 27 37 41 39 36 32 36 34 32 35 34 32 36 33 30 25 22 16 16 27 42 46 51 56 47 46 35 38 40 37 34 27 35 34 35 13 28 17 15
23 39 32 22 28 23 28 31 33 33 40 52 38 34 31 35 44 46 39 38 39 34 24 22 21 23 35 37 44 52 43 44 38 42 37 40 35 27 25 5 5 7 4 6 25
Wind_Direction_500mb
19 13 1 353 353 347 343 340 336 335 329 316 270 222 214 214 217 227 236 249 224 269 233 237 248 246 251 254 247 243 271 257 257 75 328 112 115 137 136 62 71 106 139 139 143
15 10 4 1 357 354 347 343 347 345 354 353 31 171 205 208 229 243 251 254 258 248 174 226 217 224 234 237 218 233 244 275 73 91 44 248 140 147 81 29 95 111 127 139 145
12 10 10 12 5 2 356 353 358 360 9 18 99 172 208 223 273 236 222 249 218 189 101 292 270 213 243 246 222 220 260 194 331 122 186 105 61 97 85 40 125 132 140 147 149
10 10 12 9 0 354 357 4 5 13 23 58 92 193 245 242 348 192 216 217 207 189 257 245 239 229 251 231 250 275 349 12 8 39 58 23 125 102 110 210 142 141 141 146 151
7 8 9 6 1 2 4 10 17 40 59 66 54 297 284 276 257 309 191 194 184 171 253 238 225 238 256 224 200 256 127 330 270 88 68 349 297 124 156 171 133 131 136 141 140
3 3 6 2 4 7 14 20 36 58 45 28 5 323 286 271 13 152 182 184 171 227 237 252 237 262 303 283 223 281 107 229 275 79 127 149 234 114 120 128 131 129 127 125 125
357 358 0 357 360 4 12 25 49 43 23 19 3 309 273 296 181 196 194 210 228 222 245 256 307 296 248 264 258 329 261 202 251 169 146 163 168 124 139 131 125 125 119 122 121
352 352 353 355 348 352 1 4 357 346 4 360 334 318 280 193 191 199 194 212 213 232 269 346 257 278 275 279 227 248 239 237 210 214 200 285 355 127 150 140 137 136 135 133 131
345 346 346 347 340 347 347 342 308 277 300 311 310 305 267 264 202 203 202 200 212 227 240 270 246 244 250 257 230 224 253 233 259 171 211 185 237 153 169 162 154 152 153 146 136
339 340 341 339 340 344 344 326 310 264 266 275 255 280 244 274 179 196 206 252 198 221 231 232 239 239 236 220 243 214 211 250 242 179 192 219 239 140 177 182 164 176 175 162 159
335 336 337 332 337 351 1 343 335 238 249 255 292 235 269 229 230 221 209 211 230 227 231 207 226 226 229 231 249 271 296 223 255 83 164 205 243 175 181 189 187 192 178 179 163
332 333 334 333 335 8 345 334 356 315 304 269 261 251 248 221 233 214 200 214 211 231 215 240 224 248 236 253 236 269 272 286 174 108 160 280 258 257 172 196 224 189 187 187 153
329 329 330 328 333 351 328 333 328 323 286 288 230 233 226 226 242 207 198 219 223 229 240 237 244 202 246 238 258 260 256 258 266 130 303 265 259 246 209 192 217 205 195 188 170
327 326 331 327 316 308 332 333 330 328 276 222 203 231 203 202 230 235 198 220 240 247 246 230 254 171 246 249 242 247 230 253 302 185 256 211 247 228 220 193 205 217 196 184 170
322 324 320 326 310 311 322 328 321 309 278 171 133 120 181 195 124 195 198 223 261 246 300 235 235 182 238 234 228 249 332 214 241 253 267 267 234 273 174 188 209 200 198 184 173
312 316 312 307 297 304 311 312 311 241 246 140 159 197 212 209 224 176 195 228 235 280 219 267 234 199 239 213 216 57 289 285 257 271 257 251 262 275 251 178 204 196 199 190 181
303 303 297 294 276 293 318 314 247 242 108 209 189 192 214 201 229 169 204 205 231 226 230 231 204 255 18 258 183 281 256 242 234 233 243 247 228 238 131 112 62 176 184 176 175
301 299 289 281 275 285 299 275 254 271 278 86 344 197 237 219 209 197 205 225 221 252 280 225 213 195 179 244 218 210 235 254 269 282 309 80 285 285 120 130 123 126 137 179 174
303 302 281 267 260 249 260 243 236 247 287 304 229 236 244 241 245 200 218 227 236 214 253 290 289 185 177 207 252 273 251 257 279 300 287 282 216 127 114 97 85 114 168 199 164
313 314 286 210 204 226 239 246 268 275 316 306 277 279 247 236 232 233 216 220 254 258 187 254 291 171 175 236 253 254 284 292 208 254 267 270 263 104 156 151 127 131 179 185 177
312 282 231 177 207 218 232 243 248 257 266 256 271 278 281 287 238 224 235 244 211 244 173 249 250 277 154 195 246 222 232 247 275 290 302 297 276 140 109 105 121 136 188 176 189
283 257 185 187 215 230 237 241 257 280 278 247 265 282 290 296 288 291 277 223 307 206 228 200 249 254 270 255 230 234 258 236 223 240 248 260 267 62 97 304 160 179 193 190 190
260 252 240 215 240 238 247 247 254 260 241 257 244 257 267 272 280 281 290 330 356 304 223 217 216 248 256 267 212 240 243 250 267 288 276 278 279 305 151 251 236 211 215 210 184
278 265 223 217 243 265 277 267 252 238 258 252 266 253 257 260 257 262 266 261 183 233 53 3 257 250 248 254 273 208 253 249 255 247 254 251 264 269 218 200 215 227 223 252 182
238 253 293 259 227 234 247 265 270 259 237 231 250 258 253 259 263 259 253 264 171 152 208 226 254 255 256 260 274 280 268 225 247 247 250 259 270 287 302 303 190 230 214 220 190
278 249 296 280 280 289 274 238 247 262 275 264 248 239 253 249 256 265 274 270 266 187 203 196 247 257 262 262 265 267 264 268 256 267 274 262 266 281 275 250 264 170 175 190 226
252 282 275 278 280 253 253 259 250 257 257 261 265 278 256 251 267 272 277 292 273 283 206 204 210 230 259 268 270 259 263 267 271 250 262 276 289 297 287 261 285 245 271 156 118
Wind_Speed_850mb
50 45 37 31 28 26 25 22 20 17 13 8 6 6 10 12 11 10 10 17 21 18 9 2 14 15 15 25 28 23 24 28 24 22 8 65 38 31 40 14 45 28 51 55 49
51 50 41 32 29 27 25 22 18 15 10 6 1 4 8 10 13 22 25 20 23 15 10 9 13 14 26 28 26 28 23 33 27 39 14 58 71 51 43 35 49 58 52 49 44
51 53 42 34 33 31 27 23 20 16 11 5 3 5 10 8 10 9 30 20 17 14 2 16 18 18 30 29 28 37 26 8 9 48 61 14 68 78 71 10 31 52 53 47 42
48 51 41 36 37 33 28 24 19 13 8 6 4 4 5 5 5 5 16 19 14 18 7 13 14 21 34 17 15 26 14 20 12 26 29 40 38 58 87 38 43 47 47 44 39
45 47 41 36 40 35 26 23 15 10 9 8 4 2 4 11 7 6 13 14 16 11 14 17 23 28 30 23 8 28 9 7 11 23 67 31 62 58 64 54 49 46 40 38 35
42 43 42 33 38 34 28 21 12 12 11 10 7 7 10 21 3 5 10 11 13 12 16 16 20 23 32 18 20 8 6 5 13 16 60 74 81 32 38 45 46 43 37 31 27
39 39 39 31 32 34 27 20 10 10 12 13 9 11 17 14 4 7 15 15 13 17 12 15 16 14 12 12 16 8 17 10 15 8 21 20 30 34 33 38 37 35 32 30 27
38 36 36 34 26 28 27 17 6 7 11 11 9 16 17 6 6 10 14 15 16 14 13 6 11 25 25 23 11 21 19 22 25 18 4 8 17 35 34 34 34 32 29 27 24
38 36 34 33 25 24 23 18 9 10 10 11 12 13 25 6 13 15 16 18 16 15 16 13 15 24 19 19 17 22 24 28 32 32 12 18 13 33 32 29 32 28 27 27 24
39 37 34 31 26 25 23 18 17 14 13 19 22 18 22 8 13 15 18 13 18 17 20 18 19 20 22 21 24 31 32 25 22 32 28 18 12 28 31 31 30 26 28 27 26
41 38 34 31 27 22 22 28 18 5 11 35 27 24 6 10 10 18 19 18 21 20 23 32 23 27 32 31 38 38 23 25 21 22 11 21 21 34 35 29 32 30 31 29 28
42 40 37 30 23 16 24 21 16 23 34 36 45 41 20 9 16 20 24 24 25 25 29 25 26 32 31 31 30 33 24 21 6 17 1 15 29 36 37 29 32 38 36 34 33
42 42 39 28 13 18 20 16 23 26 22 40 36 37 33 26 25 25 31 31 26 26 29 29 36 35 33 21 16 19 24 24 32 6 1 23 33 25 27 28 35 35 38 42 41
42 42 38 32 13 21 18 22 25 23 11 21 17 21 30 24 29 27 32 33 23 28 30 20 38 10 9 22 24 25 30 33 10 7 19 34 23 30 39 32 31 40 39 41 38
40 41 36 30 36 22 24 30 29 16 11 16 21 14 25 28 10 25 29 35 28 25 14 22 24 7 25 27 28 29 30 30 10 20 25 28 18 28 36 34 33 37 35 37 38
40 36 40 24 32 24 33 33 23 13 14 13 11 17 24 33 23 20 26 33 26 30 16 35 7 12 27 20 5 17 6 9 13 20 23 35 31 25 17 32 28 43 46 42 41
44 37 34 35 31 23 30 26 12 14 8 12 11 23 27 29 29 21 26 26 24 17 25 27 16 22 2 7 11 9 14 14 20 21 26 34 35 27 26 21 18 10 48 49 44
48 41 32 33 24 27 23 19 19 25 16 9 5 14 24 27 23 23 24 29 32 33 28 23 26 33 20 27 18 31 23 20 24 22 21 6 13 15 28 29 20 20 16 31 48
44 37 35 28 25 19 20 19 23 30 17 8 16 18 23 27 27 29 29 30 30 31 24 23 23 32 32 22 24 20 19 21 20 24 26 26 12 22 23 22 15 10 8 15 40
39 33 35 23 24 20 19 33 40 39 21 13 22 24 25 28 27 29 29 29 32 27 21 23 22 17 15 6 15 17 23 16 10 22 30 26 33 15 20 17 18 7 7 12 19
23 15 11 23 20 27 24 34 37 47 39 15 28 30 35 27 21 30 32 24 26 32 18 18 11 26 21 18 23 22 22 23 23 18 19 20 6 14 16 9 7 11 10 17 21
11 11 24 21 24 29 29 41 50 48 16 17 23 28 32 32 28 32 27 35 23 38 24 25 9 23 35 15 27 30 28 17 18 27 22 21 23 16 7 2 16 14 15 26 33
14 36 25 21 18 25 37 43 50 42 28 29 25 32 26 29 29 29 28 17 14 12 11 13 13 21 31 31 15 22 31 24 21 16 24 23 22 28 8 4 7 14 21 25 38
13 9 30 39 38 36 36 35 39 41 32 29 30 30 28 28 28 31 33 26 12 10 13 13 12 22 26 30 26 24 29 34 29 22 26 32 37 29 15 19 20 16 15 26 26
15 15 24 12 31 34 39 35 35 34 38 39 31 37 31 30 33 32 31 38 18 13 5 4 21 32 38 40 46 48 39 30 34 34 32 30 36 31 29 13 18 23 27 28 17
15 18 25 36 38 30 27 37 41 39 36 32 36 34 32 35 34 32 36 33 30 25 22 16 16 27 42 46 51 56 47 46 35 38 40 37 34 27 35 34 35 13 28 17 15
23 39 32 22 28 23 28 31 33 33 40 52 38 34 31 35 44 46 39 38 39 34 24 22 21 23 35 37 44 52 43 44 38 42 37 40 35 27 25 5 5 7 4 6 25
Wind_Direction_850mb
19 13 1 353 353 347 343 340 336 335 329 316 270 222 214 214 217 227 236 249 224 269 233 237 248 246 251 254 247 243 271 257 257 75 328 112 115 137 136 62 71 106 139 139 143
15 10 4 1 357 354 347 343 347 345 354 353 31 171 205 208 229 243 251 254 258 248 174 226 217 224 234 237 218 233 244 275 73 91 44 248 140 147 81 29 95 111 127 139 145
12 10 10 12 5 2 356 353 358 360 9 18 99 172 208 223 273 236 222 249 218 189 101 292 270 213 243 246 222 220 260 194 331 122 186 105 61 97 85 40 125 132 140 147 149
10 10 12 9 0 354 357 4 5 13 23 58 92 193 245 242 348 192 216 217 207 189 257 245 239 229 251 231 250 275 349 12 8 39 58 23 125 102 110 210 142 141 141 146 151
7 8 9 6 1 2 4 10 17 40 59 66 54 297 284 276 257 309 191 194 184 171 253 238 225 238 256 224 200 256 127 330 270 88 68 349 297 124 156 171 133 131 136 141 140
3 3 6 2 4 7 14 20 36 58 45 28 5 323 286 271 13 152 182 184 171 227 237 252 237 262 303 283 223 281 107 229 275 79 127 149 234 114 120 128 131 129 127 125 125
357 358 0 357 360 4 12 25 49 43 23 19 3 309 273 296 181 196 194 210 228 222 245 256 307 296 248 264 258 329 261 202 251 169 146 163 168 124 139 131 125 125 119 122 121
352 352 353 355 348 352 1 4 357 346 4 360 334 318 280 193 191 199 194 212 213 232 269 346 257 278 275 279 227 248 239 237 210 214 200 285 355 127 150 140 137 136 135 133 131
345 346 346 347 340 347 347 342 308 277 300 311 310 305 267 264 202 203 202 200 212 227 240 270 246 244 250 257 230 224 253 233 259 171 211 185 237 153 169 162 154 152 153 146 136
339 340 341 339 340 344 344 326 310 264 266 275 255 280 244 274 179 196 206 252 198 221 231 232 239 239 236 220 243 214 211 250 242 179 192 219 239 140 177 182 164 176 175 162 159
335 336 337 332 337 351 1 343 335 238 249 255 292 235 269 229 230 221 209 211 230 227 231 207 226 226 229 231 249 271 296 223 255 83 164 205 243 175 181 189 187 192 178 179 163
332 333 334 333 335 8 345 334 356 315 304 269 261 251 248 221 233 214 200 214 211 231 215 240 224 248 236 253 236 269 272 286 174 108 160 280 258 257 172 196 224 189 187 187 153
329 329 330 328 333 351 328 333 328 323 286 288 230 233 226 226 242 207 198 219 223 229 240 237 244 202 246 238 258 260 256 258 266 130 303 265 259 246 209 192 217 205 195 188 170
327 326 331 327 316 308 332 333 330 328 276 222 203 231 203 202 230 235 198 220 240 247 246 230 254 171 246 249 242 247 230 253 302 185 256 211 247 228 220 193 205 217 196 184 170
322 324 320 326 310 311 322 328 321 309 278 171 133 120 181 195 124 195 198 223 261 246 300 235 235 182 238 234 228 249 332 214 241 253 267 267 234 273 174 188 209 200 198 184 173
312 316 312 307 297 304 311 312 311 241 246 140 159 197 212 209 224 176 195 228 235 280 219 267 234 199 239 213 216 57 289 285 257 271 257 251 262 275 251 178 204 196 199 190 181
303 303 297 294 276 293 318 314 247 242 108 209 189 192 214 201 229 169 204 205 231 226 230 231 204 255 18 258 183 281 256 242 234 233 243 247 228 238 131 112 62 176 184 176 175
301 299 289 281 275 285 299 275 254 271 278 86 344 197 237 219 209 197 205 225 221 252 280 225 213 195 179 244 218 210 235 254 269 282 309 80 285 285 120 130 123 126 137 179 174
303 302 281 267 260 249 260 243 236 247 287 304 229 236 244 241 245 200 218 227 236 214 253 290 289 185 177 207 252 273 251 257 279 300 287 282 216 127 114 97 85 114 168 199 164
313 314 286 210 204 226 239 246 268 275 316 306 277 279 247 236 232 233 216 220 254 258 187 254 291 171 175 236 253 254 284 292 208 254 267 270 263 104 156 151 127 131 179 185 177
312 282 231 177 207 218 232 243 248 257 266 256 271 278 281 287 238 224 235 244 211 244 173 249 250 277 154 195 246 222 232 247 275 290 302 297 276 140 109 105 121 136 188 176 189
283 257 185 187 215 230 237 241 257 280 278 247 265 282 290 296 288 291 277 223 307 206 228 200 249 254 270 255 230 234 258 236 223 240 248 260 267 62 97 304 160 179 193 190 190
260 252 240 215 240 238 247 247 254 260 241 257 244 257 267 272 280 281 290 330 356 304 223 217 216 248 256 267 212 240 243 250 267 288 276 278 279 305 151 251 236 211 215 210 184
278 265 223 217 243 265 277 267 252 238 258 252 266 253 257 260 257 262 266 261 183 233 53 3 257 250 248 254 273 208 253 249 255 247 254 251 264 269 218 200 215 227 223 252 182
238 253 293 259 227 234 247 265 270 259 237 231 250 258 253 259 263 259 253 264 171 152 208 226 254 255 256 260 274 280 268 225 247 247 250 259 270 287 302 303 190 230 214 220 190
278 249 296 280 280 289 274 238 247 262 275 264 248 239 253 249 256 265 274 270 266 187 203 196 247 257 262 262 265 267 264 268 256 267 274 262 266 281 275 250 264 170 175 190 226
252 282 275 278 280 253 253 259 250 257 257 261 265 278 256 251 267 272 277 292 273 283 206 204 210 230 259 268 270 259 263 267 271 250 262 276 289 297 287 261 285 245 271 156 118